Time,TemperatureF,DewpointF,PressureIn,WindDirection,WindDirectionDegrees,WindSpeedMPH,WindSpeedGustMPH,Humidity,HourlyPrecipIn,Conditions,Clouds,dailyrainin,SoftwareType,DateUTC
2013-03-06 00:01:00,50.2,20.7,30.21,NNW,338,4.6,4.6,31,0.00,CLR,,0.00,WeatherDisplay:10.37,2013-03-06 06:01:00,
2013-03-06 00:06:00,50.0,19.7,30.21,North,0,5.8,5.8,30,0.00,CLR,,0.00,WeatherDisplay:10.37,2013-03-06 06:06:00,
2013-03-06 00:11:00,50.0,19.7,30.21,North,0,8.1,8.1,30,0.00,CLR,,0.00,WeatherDisplay:10.37,2013-03-06 06:11:00,
2013-03-06 00:16:00,49.8,19.6,30.21,NNW,338,1.1,0.0,30,0.00,CLR,,0.00,WeatherDisplay:10.37,2013-03-06 06:16:00,
2013-03-06 00:21:00,49.6,19.4,30.21,North,0,0.0,0.0,30,0.00,CLR,,0.00,WeatherDisplay:10.37,2013-03-06 06:21:00,
2013-03-06 00:26:00,49.5,19.3,30.21,North,0,1.1,0.0,30,0.00,CLR,,0.00,WeatherDisplay:10.37,2013-03-06 06:26:00,
2013-03-06 00:31:00,49.1,19.0,30.24,NNE,22,1.1,0.0,30,0.00,CLR,,0.00,WeatherDisplay:10.37,2013-03-06 06:31:00,
2013-03-06 00:36:00,48.9,18.8,30.24,NNW,338,0.0,0.0,30,0.00,CLR,,0.00,WeatherDisplay:10.37,2013-03-06 06:36:00,
2013-03-06 00:41:00,48.7,18.6,30.24,NNE,22,0.0,0.0,30,0.00,CLR,,0.00,WeatherDisplay:10.37,2013-03-06 06:41:00,
2013-03-06 00:46:00,48.7,18.6,30.24,North,0,4.5,4.5,30,0.00,CLR,,0.00,WeatherDisplay:10.37,2013-03-06 06:46:00,
2013-03-06 00:51:00,48.6,17.7,30.24,NNE,22,3.5,3.5,29,0.00,CLR,,0.00,WeatherDisplay:10.37,2013-03-06 06:51:00,
2013-03-06 00:56:00,48.4,17.5,30.24,NNE,22,3.5,3.5,29,0.00,CLR,,0.00,WeatherDisplay:10.37,2013-03-06 06:56:00,
2013-03-06 01:01:00,48.2,17.4,30.24,North,0,3.5,3.5,29,0.00,CLR,,0.00,WeatherDisplay:10.37,2013-03-06 07:01:00,
2013-03-06 01:06:00,48.0,17.2,30.24,NNW,338,2.3,2.3,29,0.00,CLR,,0.00,WeatherDisplay:10.37,2013-03-06 07:06:00,
2013-03-06 01:11:00,47.7,16.9,30.24,NNE,22,2.3,2.3,29,0.00,CLR,,0.00,WeatherDisplay:10.37,2013-03-06 07:11:00,
2013-03-06 01:16:00,47.5,16.8,30.24,NNW,338,5.8,5.8,29,0.00,CLR,,0.00,WeatherDisplay:10.37,2013-03-06 07:16:00,
2013-03-06 01:21:00,47.5,16.8,30.24,North,0,5.8,5.8,29,0.00,CLR,,0.00,WeatherDisplay:10.37,2013-03-06 07:21:00,
2013-03-06 01:26:00,47.7,16.9,30.24,North,0,7.8,7.8,29,0.00,CLR,,0.00,WeatherDisplay:10.37,2013-03-06 07:26:00,
2013-03-06 01:31:00,47.7,16.9,30.24,NNW,338,5.9,5.9,29,0.00,CLR,,0.00,WeatherDisplay:10.37,2013-03-06 07:31:00,
2013-03-06 01:36:00,47.5,15.9,30.24,NNE,22,5.9,5.9,28,0.00,CLR,,0.00,WeatherDisplay:10.37,2013-03-06 07:36:00,
2013-03-06 01:41:00,47.3,15.8,30.24,North,0,6.9,6.9,28,0.00,CLR,,0.00,WeatherDisplay:10.37,2013-03-06 07:41:00,
2013-03-06 01:46:00,47.3,15.8,30.27,NNE,22,6.0,6.0,28,0.00,CLR,,0.00,WeatherDisplay:10.37,2013-03-06 07:46:00,
2013-03-06 01:51:00,47.1,15.6,30.27,NNE,22,5.8,5.8,28,0.00,CLR,,0.00,WeatherDisplay:10.37,2013-03-06 07:51:00,
2013-03-06 01:56:00,46.9,15.5,30.27,NW,315,7.6,7.6,28,0.00,CLR,,0.00,WeatherDisplay:10.37,2013-03-06 07:56:00,
2013-03-06 02:01:00,46.9,15.5,30.24,NNE,22,8.1,8.1,28,0.00,CLR,,0.00,WeatherDisplay:10.37,2013-03-06 08:01:00,
2013-03-06 02:06:00,46.8,15.3,30.24,NW,315,5.8,5.8,28,0.00,CLR,,0.00,WeatherDisplay:10.37,2013-03-06 08:06:00,
2013-03-06 02:11:00,46.4,15.0,30.24,North,0,5.8,5.8,28,0.00,CLR,,0.00,WeatherDisplay:10.37,2013-03-06 08:11:00,
2013-03-06 02:16:00,46.4,15.0,30.24,NNW,338,3.5,3.6,28,0.00,CLR,,0.00,WeatherDisplay:10.37,2013-03-06 08:16:00,
2013-03-06 02:21:00,46.2,14.9,30.24,North,0,5.8,5.8,28,0.00,CLR,,0.00,WeatherDisplay:10.37,2013-03-06 08:21:00,
2013-03-06 02:26:00,46.0,14.7,30.24,North,0,4.6,4.6,28,0.00,CLR,,0.00,WeatherDisplay:10.37,2013-03-06 08:26:00,
2013-03-06 02:31:00,45.9,14.5,30.27,North,0,4.6,4.6,28,0.00,CLR,,0.00,WeatherDisplay:10.37,2013-03-06 08:31:00,
2013-03-06 02:36:00,45.7,14.4,30.27,NW,315,5.8,5.8,28,0.00,CLR,,0.00,WeatherDisplay:10.37,2013-03-06 08:36:00,
2013-03-06 02:41:00,45.3,14.1,30.27,NNE,22,4.9,4.9,28,0.00,CLR,,0.00,WeatherDisplay:10.37,2013-03-06 08:41:00,
2013-03-06 02:46:00,45.3,14.1,30.24,North,0,5.8,5.8,28,0.00,CLR,,0.00,WeatherDisplay:10.37,2013-03-06 08:46:00,
2013-03-06 02:51:00,45.1,13.9,30.24,NNE,22,5.8,5.8,28,0.00,CLR,,0.00,WeatherDisplay:10.37,2013-03-06 08:51:00,
2013-03-06 02:56:00,45.0,13.8,30.24,North,0,3.8,3.8,28,0.00,CLR,,0.00,WeatherDisplay:10.37,2013-03-06 08:56:00,
2013-03-06 03:01:00,44.6,13.5,30.24,North,0,4.6,4.6,28,0.00,CLR,,0.00,WeatherDisplay:10.37,2013-03-06 09:01:00,
2013-03-06 03:06:00,44.4,14.1,30.24,NNW,338,5.8,5.8,29,0.00,CLR,,0.00,WeatherDisplay:10.37,2013-03-06 09:06:00,
2013-03-06 03:11:00,44.2,13.9,30.24,NNW,338,2.3,2.3,29,0.00,CLR,,0.00,WeatherDisplay:10.37,2013-03-06 09:11:00,
2013-03-06 03:16:00,44.1,13.8,30.24,North,0,3.5,3.5,29,0.00,CLR,,0.00,WeatherDisplay:10.37,2013-03-06 09:16:00,
2013-03-06 03:21:00,44.1,13.8,30.24,NNE,22,6.0,6.0,29,0.00,CLR,,0.00,WeatherDisplay:10.37,2013-03-06 09:21:00,
2013-03-06 03:26:00,44.1,13.8,30.24,NNE,22,4.6,4.6,29,0.00,CLR,,0.00,WeatherDisplay:10.37,2013-03-06 09:26:00,
2013-03-06 03:31:00,43.9,13.6,30.24,NNW,338,4.6,4.6,29,0.00,CLR,,0.00,WeatherDisplay:10.37,2013-03-06 09:31:00,
2013-03-06 03:36:00,43.9,13.6,30.24,North,0,5.8,5.8,29,0.00,CLR,,0.00,WeatherDisplay:10.37,2013-03-06 09:36:00,
2013-03-06 03:41:00,43.7,13.5,30.24,NNW,338,5.8,5.8,29,0.00,CLR,,0.00,WeatherDisplay:10.37,2013-03-06 09:41:00,
2013-03-06 03:46:00,43.5,13.3,30.27,North,0,4.6,4.6,29,0.00,CLR,,0.00,WeatherDisplay:10.37,2013-03-06 09:46:00,
2013-03-06 03:51:00,43.3,13.2,30.27,NNE,22,6.4,6.4,29,0.00,CLR,,0.00,WeatherDisplay:10.37,2013-03-06 09:51:00,
2013-03-06 03:56:00,43.3,13.2,30.27,North,0,3.5,3.5,29,0.00,CLR,,0.00,WeatherDisplay:10.37,2013-03-06 09:56:00,
2013-03-06 04:01:00,43.0,12.8,30.27,NNW,338,4.7,4.7,29,0.00,CLR,,0.00,WeatherDisplay:10.37,2013-03-06 10:01:00,
2013-03-06 04:06:00,42.8,12.7,30.27,North,0,3.5,3.5,29,0.00,CLR,,0.00,WeatherDisplay:10.37,2013-03-06 10:06:00,
2013-03-06 04:11:00,42.6,12.5,30.27,North,0,4.6,4.6,29,0.00,CLR,,0.00,WeatherDisplay:10.37,2013-03-06 10:11:00,
2013-03-06 04:16:00,42.4,12.4,30.27,NNW,338,4.6,4.6,29,0.00,CLR,,0.00,WeatherDisplay:10.37,2013-03-06 10:16:00,
2013-03-06 04:21:00,42.4,12.4,30.27,North,0,4.6,4.6,29,0.00,CLR,,0.00,WeatherDisplay:10.37,2013-03-06 10:21:00,
2013-03-06 04:27:00,42.4,12.4,30.27,North,0,5.8,5.8,29,0.00,CLR,,0.00,WeatherDisplay:10.37,2013-03-06 10:27:00,
2013-03-06 04:32:00,42.4,13.1,30.30,North,0,5.8,5.8,30,0.00,CLR,,0.00,WeatherDisplay:10.37,2013-03-06 10:32:00,
2013-03-06 04:37:00,42.3,12.2,30.30,NNW,338,4.6,4.6,29,0.00,CLR,,0.00,WeatherDisplay:10.37,2013-03-06 10:37:00,
2013-03-06 04:42:00,42.1,12.1,30.30,NW,315,3.5,3.5,29,0.00,CLR,,0.00,WeatherDisplay:10.37,2013-03-06 10:42:00,
2013-03-06 04:47:00,41.7,12.5,30.30,North,0,2.3,2.3,30,0.00,CLR,,0.00,WeatherDisplay:10.37,2013-03-06 10:47:00,
2013-03-06 04:52:00,41.5,12.4,30.30,NNW,338,2.3,2.3,30,0.00,CLR,,0.00,WeatherDisplay:10.37,2013-03-06 10:52:00,
2013-03-06 04:57:00,41.2,12.0,30.30,North,0,0.0,0.0,30,0.00,CLR,,0.00,WeatherDisplay:10.37,2013-03-06 10:57:00,
2013-03-06 05:02:00,40.8,12.5,30.30,North,0,0.0,0.0,31,0.00,CLR,,0.00,WeatherDisplay:10.37,2013-03-06 11:02:00,
2013-03-06 05:07:00,40.5,12.2,30.30,North,0,0.0,0.0,31,0.00,CLR,,0.00,WeatherDisplay:10.37,2013-03-06 11:07:00,
2013-03-06 05:12:00,40.1,13.3,30.30,SSE,158,1.1,0.0,33,0.00,CLR,,0.00,WeatherDisplay:10.37,2013-03-06 11:12:00,
2013-03-06 05:17:00,39.2,13.8,30.30,SSE,158,0.0,0.0,35,0.00,CLR,,0.00,WeatherDisplay:10.37,2013-03-06 11:17:00,
2013-03-06 05:22:00,38.7,15.2,30.30,SSE,158,0.0,0.0,38,0.00,CLR,,0.00,WeatherDisplay:10.37,2013-03-06 11:22:00,
2013-03-06 05:27:00,38.3,15.5,30.30,SSE,158,0.0,0.0,39,0.00,CLR,,0.00,WeatherDisplay:10.37,2013-03-06 11:27:00,
2013-03-06 05:32:00,37.9,15.1,30.33,SSE,158,0.0,0.0,39,0.00,CLR,,0.00,WeatherDisplay:10.37,2013-03-06 11:32:00,
2013-03-06 05:37:00,37.6,15.4,30.33,SSE,158,0.0,0.0,40,0.00,CLR,,0.00,WeatherDisplay:10.37,2013-03-06 11:37:00,
2013-03-06 05:42:00,37.4,15.2,30.33,SSE,158,0.0,0.0,40,0.00,CLR,,0.00,WeatherDisplay:10.37,2013-03-06 11:42:00,
2013-03-06 05:47:00,37.0,15.5,30.30,SSE,158,0.0,0.0,41,0.00,CLR,,0.00,WeatherDisplay:10.37,2013-03-06 11:47:00,
2013-03-06 05:52:00,36.9,15.9,30.30,SSE,158,0.0,0.0,42,0.00,CLR,,0.00,WeatherDisplay:10.37,2013-03-06 11:52:00,
2013-03-06 05:57:00,36.7,15.7,30.30,SSE,158,0.0,0.0,42,0.00,CLR,,0.00,WeatherDisplay:10.37,2013-03-06 11:57:00,
2013-03-06 06:02:00,36.5,15.0,30.33,SSE,158,0.0,0.0,41,0.00,CLR,,0.00,WeatherDisplay:10.37,2013-03-06 12:02:00,
2013-03-06 06:07:00,36.1,15.2,30.33,SSE,158,0.0,0.0,42,0.00,CLR,,0.00,WeatherDisplay:10.37,2013-03-06 12:07:00,
2013-03-06 06:12:00,36.0,15.6,30.33,SSE,158,0.0,0.0,43,0.00,CLR,,0.00,WeatherDisplay:10.37,2013-03-06 12:12:00,
2013-03-06 06:17:00,35.8,16.0,30.33,SSE,158,0.0,0.0,44,0.00,CLR,,0.00,WeatherDisplay:10.37,2013-03-06 12:17:00,
2013-03-06 06:22:00,35.6,15.8,30.33,SSE,158,0.0,0.0,44,0.00,CLR,,0.00,WeatherDisplay:10.37,2013-03-06 12:22:00,
2013-03-06 06:27:00,35.6,15.8,30.33,SSE,158,0.0,0.0,44,0.00,CLR,,0.00,WeatherDisplay:10.37,2013-03-06 12:27:00,
2013-03-06 06:32:00,35.4,16.7,30.33,SSE,158,0.0,0.0,46,0.00,CLR,,0.00,WeatherDisplay:10.37,2013-03-06 12:32:00,
2013-03-06 06:37:00,35.4,16.7,30.33,SSE,158,0.0,0.0,46,0.00,CLR,,0.00,WeatherDisplay:10.37,2013-03-06 12:37:00,
2013-03-06 06:42:00,35.4,16.7,30.33,SSE,158,0.0,0.0,46,0.00,CLR,,0.00,WeatherDisplay:10.37,2013-03-06 12:42:00,
2013-03-06 06:47:00,35.4,17.2,30.33,SSE,158,0.0,0.0,47,0.00,CLR,,0.00,WeatherDisplay:10.37,2013-03-06 12:47:00,
2013-03-06 06:52:00,35.4,17.7,30.33,SSE,158,0.0,0.0,48,0.00,CLR,,0.00,WeatherDisplay:10.37,2013-03-06 12:52:00,
2013-03-06 06:57:00,35.4,17.2,30.33,SSE,158,0.0,0.0,47,0.00,CLR,,0.00,WeatherDisplay:10.37,2013-03-06 12:57:00,
2013-03-06 07:02:00,35.4,18.1,30.33,SSE,158,0.0,0.0,49,0.00,CLR,,0.00,WeatherDisplay:10.37,2013-03-06 13:02:00,
2013-03-06 07:07:00,35.6,18.3,30.33,SSE,158,0.0,0.0,49,0.00,CLR,,0.00,WeatherDisplay:10.37,2013-03-06 13:07:00,
2013-03-06 07:12:00,35.8,18.5,30.33,SSE,158,0.0,0.0,49,0.00,CLR,,0.00,WeatherDisplay:10.37,2013-03-06 13:12:00,
2013-03-06 07:17:00,36.1,19.3,30.36,SSE,158,0.0,0.0,50,0.00,CLR,,0.00,WeatherDisplay:10.37,2013-03-06 13:17:00,
2013-03-06 07:22:00,36.7,19.8,30.36,SSE,158,0.0,0.0,50,0.00,CLR,,0.00,WeatherDisplay:10.37,2013-03-06 13:22:00,
2013-03-06 07:27:00,37.0,20.1,30.36,SSE,158,0.0,0.0,50,0.00,CLR,,0.00,WeatherDisplay:10.37,2013-03-06 13:27:00,
2013-03-06 07:32:00,37.6,20.1,30.33,NW,315,2.3,2.3,49,0.00,CLR,,0.00,WeatherDisplay:10.37,2013-03-06 13:32:00,
2013-03-06 07:37:00,38.8,21.3,30.33,North,0,3.3,3.3,49,0.00,CLR,,0.00,WeatherDisplay:10.37,2013-03-06 13:37:00,
2013-03-06 07:42:00,39.9,20.8,30.33,NNW,338,4.6,4.6,46,0.00,CLR,,0.00,WeatherDisplay:10.37,2013-03-06 13:42:00,
2013-03-06 07:47:00,40.8,20.6,30.33,NNE,22,3.8,3.8,44,0.00,CLR,,0.00,WeatherDisplay:10.37,2013-03-06 13:47:00,
2013-03-06 07:52:00,41.7,20.3,30.33,NNE,22,4.6,4.6,42,0.00,CLR,,0.00,WeatherDisplay:10.37,2013-03-06 13:52:00,
2013-03-06 07:57:00,42.3,19.6,30.33,NNE,22,6.9,6.9,40,0.00,CLR,,0.00,WeatherDisplay:10.37,2013-03-06 13:57:00,
2013-03-06 08:02:00,43.0,19.1,30.36,North,0,6.9,6.9,38,0.00,CLR,,0.00,WeatherDisplay:10.37,2013-03-06 14:02:00,
2013-03-06 08:07:00,43.5,19.6,30.36,North,0,5.8,5.8,38,0.00,CLR,,0.00,WeatherDisplay:10.37,2013-03-06 14:07:00,
2013-03-06 08:12:00,44.1,17.4,30.36,North,0,9.2,9.2,34,0.00,CLR,,0.00,WeatherDisplay:10.37,2013-03-06 14:12:00,
2013-03-06 08:17:00,44.6,17.2,30.36,NNW,338,5.8,5.8,33,0.00,CLR,,0.00,WeatherDisplay:10.37,2013-03-06 14:17:00,
2013-03-06 08:22:00,45.0,18.9,30.36,North,0,5.8,5.8,35,0.00,CLR,,0.00,WeatherDisplay:10.37,2013-03-06 14:22:00,
2013-03-06 08:27:00,45.9,17.6,30.36,NNW,338,5.8,5.8,32,0.00,CLR,,0.00,WeatherDisplay:10.37,2013-03-06 14:27:00,
2013-03-06 08:32:00,46.2,16.4,30.39,North,0,6.9,6.9,30,0.00,CLR,,0.00,WeatherDisplay:10.37,2013-03-06 14:32:00,
2013-03-06 08:37:00,46.8,15.3,30.39,NNE,22,10.4,10.4,28,0.00,CLR,,0.00,WeatherDisplay:10.37,2013-03-06 14:37:00,
2013-03-06 08:42:00,47.3,16.6,30.39,West,270,6.9,6.9,29,0.00,CLR,,0.00,WeatherDisplay:10.37,2013-03-06 14:42:00,
2013-03-06 08:47:00,47.5,15.9,30.36,North,0,11.5,11.5,28,0.00,CLR,,0.00,WeatherDisplay:10.37,2013-03-06 14:47:00,
2013-03-06 08:52:00,47.7,15.3,30.36,NNW,338,10.4,10.4,27,0.00,CLR,,0.00,WeatherDisplay:10.37,2013-03-06 14:52:00,
2013-03-06 08:57:00,48.7,16.2,30.36,North,0,5.4,5.4,27,0.00,CLR,,0.00,WeatherDisplay:10.37,2013-03-06 14:57:00,
2013-03-06 09:02:00,49.3,17.5,30.39,NNW,338,5.8,5.8,28,0.00,CLR,,0.00,WeatherDisplay:10.37,2013-03-06 15:02:00,
2013-03-06 09:07:00,49.6,17.0,30.39,North,0,8.1,8.1,27,0.00,CLR,,0.00,WeatherDisplay:10.37,2013-03-06 15:07:00,
2013-03-06 09:13:00,50.2,17.4,30.39,North,0,9.2,9.2,27,0.00,CLR,,0.00,WeatherDisplay:10.37,2013-03-06 15:13:00,
2013-03-06 09:18:00,50.2,16.6,30.39,NNW,338,6.9,6.9,26,0.00,CLR,,0.00,WeatherDisplay:10.37,2013-03-06 15:18:00,
2013-03-06 09:23:00,50.4,16.7,30.39,NNW,338,4.9,4.9,26,0.00,CLR,,0.00,WeatherDisplay:10.37,2013-03-06 15:23:00,
2013-03-06 09:28:00,51.1,17.3,30.39,North,0,7.4,7.4,26,0.00,CLR,,0.00,WeatherDisplay:10.37,2013-03-06 15:28:00,
2013-03-06 09:33:00,51.4,17.6,30.36,NNE,22,8.1,8.1,26,0.00,CLR,,0.00,WeatherDisplay:10.37,2013-03-06 15:33:00,
2013-03-06 09:38:00,51.3,15.6,30.36,ESE,112,4.6,4.6,24,0.00,CLR,,0.00,WeatherDisplay:10.37,2013-03-06 15:38:00,
2013-03-06 09:43:00,51.6,15.9,30.36,NE,45,3.5,3.5,24,0.00,CLR,,0.00,WeatherDisplay:10.37,2013-03-06 15:43:00,
2013-03-06 09:48:00,52.2,18.3,30.36,North,0,3.5,3.5,26,0.00,CLR,,0.00,WeatherDisplay:10.37,2013-03-06 15:48:00,
2013-03-06 09:53:00,52.7,15.9,30.36,North,0,6.0,6.0,23,0.00,CLR,,0.00,WeatherDisplay:10.37,2013-03-06 15:53:00,
2013-03-06 09:58:00,52.5,13.6,30.36,North,0,8.1,8.1,21,0.00,CLR,,0.00,WeatherDisplay:10.37,2013-03-06 15:58:00,
2013-03-06 10:03:00,53.1,16.2,30.36,North,0,6.9,6.9,23,0.00,CLR,,0.00,WeatherDisplay:10.37,2013-03-06 16:03:00,
2013-03-06 10:08:00,53.4,16.5,30.36,ENE,68,3.5,3.5,23,0.00,CLR,,0.00,WeatherDisplay:10.37,2013-03-06 16:08:00,
2013-03-06 10:13:00,54.1,17.1,30.36,NNE,22,5.8,5.8,23,0.00,CLR,,0.00,WeatherDisplay:10.37,2013-03-06 16:13:00,
2013-03-06 10:18:00,54.1,13.9,30.36,NNW,338,3.5,3.6,20,0.00,CLR,,0.00,WeatherDisplay:10.37,2013-03-06 16:18:00,
2013-03-06 10:23:00,54.7,17.6,30.36,North,0,5.8,5.8,23,0.00,CLR,,0.00,WeatherDisplay:10.37,2013-03-06 16:23:00,
2013-03-06 10:28:00,54.7,14.3,30.36,NNE,22,8.1,8.1,20,0.00,CLR,,0.00,WeatherDisplay:10.37,2013-03-06 16:28:00,
2013-03-06 10:33:00,54.7,14.3,30.36,North,0,5.8,5.8,20,0.00,CLR,,0.00,WeatherDisplay:10.37,2013-03-06 16:33:00,
2013-03-06 10:38:00,54.9,12.1,30.36,NNW,338,6.9,6.9,18,0.00,CLR,,0.00,WeatherDisplay:10.37,2013-03-06 16:38:00,
2013-03-06 10:43:00,55.0,12.2,30.36,SSE,158,5.8,5.8,18,0.00,CLR,,0.00,WeatherDisplay:10.37,2013-03-06 16:43:00,
2013-03-06 10:48:00,55.4,11.2,30.36,NNE,22,5.8,5.8,17,0.00,CLR,,0.00,WeatherDisplay:10.37,2013-03-06 16:48:00,
2013-03-06 10:53:00,55.9,11.7,30.36,East,90,3.5,3.5,17,0.00,CLR,,0.00,WeatherDisplay:10.37,2013-03-06 16:53:00,
2013-03-06 10:58:00,56.5,12.1,30.36,NNE,22,5.8,5.9,17,0.00,CLR,,0.00,WeatherDisplay:10.37,2013-03-06 16:58:00,
2013-03-06 11:03:00,56.7,12.3,30.33,North,0,9.2,9.2,17,0.00,CLR,,0.00,WeatherDisplay:10.37,2013-03-06 17:03:00,
2013-03-06 11:08:00,56.5,12.1,30.33,NNW,338,9.2,9.2,17,0.00,CLR,,0.00,WeatherDisplay:10.37,2013-03-06 17:08:00,
2013-03-06 11:13:00,56.3,9.2,30.33,NNW,338,9.2,9.2,15,0.00,CLR,,0.00,WeatherDisplay:10.37,2013-03-06 17:13:00,
2013-03-06 11:18:00,56.5,12.1,30.33,SSW,202,5.8,5.8,17,0.00,CLR,,0.00,WeatherDisplay:10.37,2013-03-06 17:18:00,
2013-03-06 11:23:00,57.2,12.7,30.33,NNE,22,8.1,8.1,17,0.00,CLR,,0.00,WeatherDisplay:10.37,2013-03-06 17:23:00,
2013-03-06 11:28:00,57.6,13.0,30.33,NNW,338,6.9,6.9,17,0.00,CLR,,0.00,WeatherDisplay:10.37,2013-03-06 17:28:00,
2013-03-06 11:33:00,57.7,13.2,30.30,East,90,2.3,2.6,17,0.00,CLR,,0.00,WeatherDisplay:10.37,2013-03-06 17:33:00,
2013-03-06 11:38:00,57.9,13.3,30.30,NNE,22,8.7,8.7,17,0.00,CLR,,0.00,WeatherDisplay:10.37,2013-03-06 17:38:00,
2013-03-06 11:43:00,58.6,13.9,30.33,West,270,3.5,3.5,17,0.00,CLR,,0.00,WeatherDisplay:10.37,2013-03-06 17:43:00,
2013-03-06 11:48:00,59.0,14.2,30.33,North,0,7.8,7.8,17,0.00,CLR,,0.00,WeatherDisplay:10.37,2013-03-06 17:48:00,
2013-03-06 11:53:00,58.6,9.5,30.33,North,0,9.2,9.2,14,0.00,CLR,,0.00,WeatherDisplay:10.37,2013-03-06 17:53:00,
2013-03-06 11:58:00,59.0,14.2,30.33,North,0,10.4,10.4,17,0.00,CLR,,0.00,WeatherDisplay:10.37,2013-03-06 17:58:00,
2013-03-06 12:03:00,59.2,14.3,30.33,NE,45,6.9,6.9,17,0.00,CLR,,0.00,WeatherDisplay:10.37,2013-03-06 18:03:00,
2013-03-06 12:08:00,59.5,14.6,30.33,SSE,158,8.1,8.1,17,0.00,CLR,,0.00,WeatherDisplay:10.37,2013-03-06 18:08:00,
2013-03-06 12:13:00,60.8,14.3,30.30,SSE,158,4.6,4.6,16,0.00,CLR,,0.00,WeatherDisplay:10.37,2013-03-06 18:13:00,
2013-03-06 12:18:00,60.1,10.7,30.30,NNW,338,9.2,9.2,14,0.00,CLR,,0.00,WeatherDisplay:10.37,2013-03-06 18:18:00,
2013-03-06 12:23:00,59.9,14.9,30.30,NNE,22,5.8,5.8,17,0.00,CLR,,0.00,WeatherDisplay:10.37,2013-03-06 18:23:00,
2013-03-06 12:28:00,59.9,14.9,30.30,NNE,22,4.6,4.6,17,0.00,CLR,,0.00,WeatherDisplay:10.37,2013-03-06 18:28:00,
2013-03-06 12:33:00,60.1,15.1,30.30,NNE,22,9.2,9.2,17,0.00,CLR,,0.00,WeatherDisplay:10.37,2013-03-06 18:33:00,
2013-03-06 12:38:00,60.3,10.8,30.30,North,0,6.9,6.9,14,0.00,CLR,,0.00,WeatherDisplay:10.37,2013-03-06 18:38:00,
2013-03-06 12:43:00,60.4,10.9,30.30,North,0,8.1,8.1,14,0.00,CLR,,0.00,WeatherDisplay:10.37,2013-03-06 18:43:00,
2013-03-06 12:48:00,60.3,10.8,30.30,NNW,338,13.0,13.0,14,0.00,CLR,,0.00,WeatherDisplay:10.37,2013-03-06 18:48:00,
2013-03-06 12:53:00,60.3,10.8,30.30,NNW,338,8.1,8.1,14,0.00,CLR,,0.00,WeatherDisplay:10.37,2013-03-06 18:53:00,
2013-03-06 12:58:00,60.6,11.1,30.27,NNW,338,6.0,7.1,14,0.00,CLR,,0.00,WeatherDisplay:10.37,2013-03-06 18:58:00,
2013-03-06 13:03:00,60.4,10.9,30.27,ENE,68,8.1,8.1,14,0.00,CLR,,0.00,WeatherDisplay:10.37,2013-03-06 19:03:00,
2013-03-06 13:08:00,60.6,11.1,30.27,NNE,22,7.8,7.8,14,0.00,CLR,,0.00,WeatherDisplay:10.37,2013-03-06 19:08:00,
2013-03-06 13:13:00,61.0,11.4,30.27,ENE,68,8.1,8.1,14,0.00,CLR,,0.00,WeatherDisplay:10.37,2013-03-06 19:13:00,
2013-03-06 13:18:00,61.3,11.7,30.27,North,0,6.9,6.9,14,0.00,CLR,,0.00,WeatherDisplay:10.37,2013-03-06 19:18:00,
2013-03-06 13:23:00,61.7,11.9,30.27,NNE,22,7.8,7.8,14,0.00,CLR,,0.00,WeatherDisplay:10.37,2013-03-06 19:23:00,
2013-03-06 13:28:00,61.5,11.8,30.27,North,0,9.7,9.7,14,0.00,CLR,,0.00,WeatherDisplay:10.37,2013-03-06 19:28:00,
2013-03-06 13:33:00,61.5,11.8,30.27,North,0,5.8,5.8,14,0.00,CLR,,0.00,WeatherDisplay:10.37,2013-03-06 19:33:00,
2013-03-06 13:38:00,61.7,11.9,30.27,NNW,338,8.1,8.1,14,0.00,CLR,,0.00,WeatherDisplay:10.37,2013-03-06 19:38:00,
2013-03-06 13:43:00,62.1,12.2,30.27,North,0,10.0,10.0,14,0.00,CLR,,0.00,WeatherDisplay:10.37,2013-03-06 19:43:00,
2013-03-06 13:48:00,62.1,12.2,30.27,North,0,6.9,6.9,14,0.00,CLR,,0.00,WeatherDisplay:10.37,2013-03-06 19:48:00,
2013-03-06 13:53:00,62.2,12.4,30.27,NE,45,5.9,5.9,14,0.00,CLR,,0.00,WeatherDisplay:10.37,2013-03-06 19:53:00,
2013-03-06 13:58:00,62.2,12.4,30.24,ESE,112,5.8,5.8,14,0.00,CLR,,0.00,WeatherDisplay:10.37,2013-03-06 19:58:00,
2013-03-06 14:03:00,62.6,11.0,30.24,North,0,9.4,9.4,13,0.00,CLR,,0.00,WeatherDisplay:10.37,2013-03-06 20:03:00,
2013-03-06 14:08:00,62.2,12.4,30.24,North,0,4.3,4.3,14,0.00,CLR,,0.00,WeatherDisplay:10.37,2013-03-06 20:08:00,
2013-03-06 14:13:00,62.4,12.5,30.24,NNW,338,5.8,5.8,14,0.00,CLR,,0.00,WeatherDisplay:10.37,2013-03-06 20:13:00,
2013-03-06 14:18:00,62.8,11.1,30.24,NW,315,8.1,8.1,13,0.00,CLR,,0.00,WeatherDisplay:10.37,2013-03-06 20:18:00,
2013-03-06 14:23:00,62.6,11.0,30.24,North,0,9.2,9.2,13,0.00,CLR,,0.00,WeatherDisplay:10.37,2013-03-06 20:23:00,
2013-03-06 14:28:00,63.0,11.3,30.21,North,0,9.7,9.7,13,0.00,CLR,,0.00,WeatherDisplay:10.37,2013-03-06 20:28:00,
2013-03-06 14:33:00,63.1,11.4,30.21,North,0,8.1,8.1,13,0.00,CLR,,0.00,WeatherDisplay:10.37,2013-03-06 20:33:00,
2013-03-06 14:38:00,63.0,11.3,30.21,NNE,22,10.4,10.4,13,0.00,CLR,,0.00,WeatherDisplay:10.37,2013-03-06 20:38:00,
2013-03-06 14:43:00,63.0,11.3,30.18,NNW,338,9.2,9.2,13,0.00,CLR,,0.00,WeatherDisplay:10.37,2013-03-06 20:43:00,
2013-03-06 14:48:00,63.0,11.3,30.18,NNW,338,6.9,6.9,13,0.00,CLR,,0.00,WeatherDisplay:10.37,2013-03-06 20:48:00,
2013-03-06 14:53:00,63.1,11.4,30.18,North,0,8.1,8.1,13,0.00,CLR,,0.00,WeatherDisplay:10.37,2013-03-06 20:53:00,
2013-03-06 14:58:00,63.1,11.4,30.21,North,0,6.9,6.9,13,0.00,CLR,,0.00,WeatherDisplay:10.37,2013-03-06 20:58:00,
2013-03-06 15:03:00,62.6,11.0,30.21,NNE,22,5.8,5.8,13,0.00,CLR,,0.00,WeatherDisplay:10.37,2013-03-06 21:03:00,
2013-03-06 15:08:00,62.6,11.0,30.21,NNW,338,6.0,6.0,13,0.00,CLR,,0.00,WeatherDisplay:10.37,2013-03-06 21:08:00,
2013-03-06 15:13:00,62.8,11.1,30.21,SE,135,2.9,3.1,13,0.00,CLR,,0.00,WeatherDisplay:10.37,2013-03-06 21:13:00,
2013-03-06 15:18:00,62.8,11.1,30.21,NNW,338,6.2,6.2,13,0.00,CLR,,0.00,WeatherDisplay:10.37,2013-03-06 21:18:00,
2013-03-06 15:23:00,62.6,11.0,30.21,SSW,202,5.8,5.8,13,0.00,CLR,,0.00,WeatherDisplay:10.37,2013-03-06 21:23:00,
2013-03-06 15:28:00,62.6,11.0,30.21,NNW,338,6.0,6.0,13,0.00,CLR,,0.00,WeatherDisplay:10.37,2013-03-06 21:28:00,
2013-03-06 15:33:00,62.6,11.0,30.21,South,180,5.6,5.6,13,0.00,CLR,,0.00,WeatherDisplay:10.37,2013-03-06 21:33:00,
2013-03-06 15:38:00,62.6,11.0,30.21,ENE,68,3.1,3.1,13,0.00,CLR,,0.00,WeatherDisplay:10.37,2013-03-06 21:38:00,
2013-03-06 15:43:00,62.4,12.5,30.21,NNE,22,3.6,3.6,14,0.00,CLR,,0.00,WeatherDisplay:10.37,2013-03-06 21:43:00,
2013-03-06 15:48:00,62.4,12.5,30.21,NE,45,3.5,3.5,14,0.00,CLR,,0.00,WeatherDisplay:10.37,2013-03-06 21:48:00,
2013-03-06 15:53:00,62.2,12.4,30.21,NNW,338,6.9,6.9,14,0.00,CLR,,0.00,WeatherDisplay:10.37,2013-03-06 21:53:00,
2013-03-06 15:58:00,62.1,12.2,30.21,NNE,22,5.8,5.8,14,0.00,CLR,,0.00,WeatherDisplay:10.37,2013-03-06 21:58:00,
2013-03-06 16:03:00,62.1,12.2,30.21,North,0,11.8,11.8,14,0.00,CLR,,0.00,WeatherDisplay:10.37,2013-03-06 22:03:00,
2013-03-06 16:08:00,61.7,11.9,30.21,NNE,22,5.8,5.8,14,0.00,CLR,,0.00,WeatherDisplay:10.37,2013-03-06 22:08:00,
2013-03-06 16:13:00,61.7,11.9,30.18,North,0,10.4,10.4,14,0.00,CLR,,0.00,WeatherDisplay:10.37,2013-03-06 22:13:00,
2013-03-06 16:18:00,61.3,11.7,30.18,East,90,0.0,2.0,14,0.00,CLR,,0.00,WeatherDisplay:10.37,2013-03-06 22:18:00,
2013-03-06 16:23:00,61.3,11.7,30.18,East,90,0.0,2.0,14,0.00,CLR,,0.00,WeatherDisplay:10.37,2013-03-06 22:23:00,
2013-03-06 16:28:00,61.3,11.7,30.18,East,90,0.0,2.0,14,0.00,CLR,,0.00,WeatherDisplay:10.37,2013-03-06 22:28:00,
2013-03-06 16:33:00,61.3,11.7,30.18,East,90,0.0,2.0,14,0.00,CLR,,0.00,WeatherDisplay:10.37,2013-03-06 22:33:00,
2013-03-06 16:38:00,61.3,11.7,30.18,East,90,0.0,2.0,14,0.00,CLR,,0.00,WeatherDisplay:10.37,2013-03-06 22:38:00,
2013-03-06 16:43:00,61.3,11.7,30.18,East,90,0.0,2.0,14,0.00,CLR,,0.00,WeatherDisplay:10.37,2013-03-06 22:43:00,
2013-03-06 16:48:00,61.3,11.7,30.18,East,90,0.0,2.0,14,0.00,CLR,,0.00,WeatherDisplay:10.37,2013-03-06 22:48:00,
2013-03-06 16:53:00,61.3,11.7,30.18,East,90,0.0,2.0,14,0.00,CLR,,0.00,WeatherDisplay:10.37,2013-03-06 22:53:00,
2013-03-06 16:58:00,61.3,11.7,30.18,East,90,0.0,2.0,14,0.00,CLR,,0.00,WeatherDisplay:10.37,2013-03-06 22:58:00,
2013-03-06 17:03:00,61.3,11.7,30.18,East,90,0.0,2.0,14,0.00,CLR,,0.00,WeatherDisplay:10.37,2013-03-06 23:03:00,
2013-03-06 17:08:00,61.3,11.7,30.18,East,90,0.0,2.0,14,0.00,CLR,,0.00,WeatherDisplay:10.37,2013-03-06 23:08:00,
2013-03-06 17:13:00,61.3,11.7,30.18,East,90,0.0,2.0,14,0.00,CLR,,0.00,WeatherDisplay:10.37,2013-03-06 23:13:00,
2013-03-06 17:18:00,61.3,11.7,30.18,East,90,0.0,2.0,14,0.00,CLR,,0.00,WeatherDisplay:10.37,2013-03-06 23:18:00,
2013-03-06 17:23:00,61.3,11.7,30.18,East,90,0.0,2.0,14,0.00,CLR,,0.00,WeatherDisplay:10.37,2013-03-06 23:23:00,
2013-03-06 17:28:00,61.3,11.7,30.18,East,90,0.0,2.0,14,0.00,CLR,,0.00,WeatherDisplay:10.37,2013-03-06 23:28:00,
2013-03-06 17:33:00,61.3,11.7,30.18,East,90,0.0,2.0,14,0.00,CLR,,0.00,WeatherDisplay:10.37,2013-03-06 23:33:00,
2013-03-06 17:38:00,61.3,11.7,30.18,East,90,0.0,2.0,14,0.00,CLR,,0.00,WeatherDisplay:10.37,2013-03-06 23:38:00,
2013-03-06 17:43:00,61.3,11.7,30.18,East,90,0.0,2.0,14,0.00,CLR,,0.00,WeatherDisplay:10.37,2013-03-06 23:43:00,
2013-03-06 17:48:00,61.3,11.7,30.18,East,90,0.0,2.0,14,0.00,CLR,,0.00,WeatherDisplay:10.37,2013-03-06 23:48:00,
2013-03-06 17:53:00,61.3,11.7,30.18,East,90,0.0,2.0,14,0.00,CLR,,0.00,WeatherDisplay:10.37,2013-03-06 23:53:00,
2013-03-06 17:58:00,61.3,11.7,30.18,East,90,0.0,2.0,14,0.00,CLR,,0.00,WeatherDisplay:10.37,2013-03-06 23:58:00,
2013-03-06 18:03:00,61.3,11.7,30.18,East,90,0.0,2.0,14,0.00,CLR,,0.00,WeatherDisplay:10.37,2013-03-07 00:03:00,
2013-03-06 18:09:00,61.3,11.7,30.18,East,90,0.0,2.0,14,0.00,CLR,,0.00,WeatherDisplay:10.37,2013-03-07 00:09:00,
2013-03-06 18:14:00,61.3,11.7,30.18,East,90,0.0,2.0,14,0.00,CLR,,0.00,WeatherDisplay:10.37,2013-03-07 00:14:00,
2013-03-06 18:19:00,61.3,11.7,30.18,East,90,0.0,2.0,14,0.00,CLR,,0.00,WeatherDisplay:10.37,2013-03-07 00:19:00,
2013-03-06 18:24:00,61.3,11.7,30.18,East,90,0.0,2.0,14,0.00,CLR,,0.00,WeatherDisplay:10.37,2013-03-07 00:24:00,
2013-03-06 18:29:00,61.3,11.7,30.18,East,90,0.0,2.0,14,0.00,CLR,,0.00,WeatherDisplay:10.37,2013-03-07 00:29:00,
2013-03-06 18:34:00,61.3,11.7,30.18,East,90,0.0,2.0,14,0.00,CLR,,0.00,WeatherDisplay:10.37,2013-03-07 00:34:00,
2013-03-06 18:39:00,61.3,11.7,30.18,East,90,0.0,2.0,14,0.00,CLR,,0.00,WeatherDisplay:10.37,2013-03-07 00:39:00,
2013-03-06 18:44:00,61.3,11.7,30.18,East,90,0.0,2.0,14,0.00,CLR,,0.00,WeatherDisplay:10.37,2013-03-07 00:44:00,
2013-03-06 18:49:00,61.3,11.7,30.18,East,90,0.0,2.0,14,0.00,CLR,,0.00,WeatherDisplay:10.37,2013-03-07 00:49:00,
2013-03-06 18:54:00,61.3,11.7,30.18,East,90,0.0,2.0,14,0.00,CLR,,0.00,WeatherDisplay:10.37,2013-03-07 00:54:00,
2013-03-06 18:59:00,61.3,11.7,30.18,East,90,0.0,2.0,14,0.00,CLR,,0.00,WeatherDisplay:10.37,2013-03-07 00:59:00,
2013-03-06 19:04:00,61.3,11.7,30.18,East,90,0.0,2.0,14,0.00,CLR,,0.00,WeatherDisplay:10.37,2013-03-07 01:04:00,
2013-03-06 19:09:00,61.3,11.7,30.18,East,90,0.0,2.0,14,0.00,CLR,,0.00,WeatherDisplay:10.37,2013-03-07 01:09:00,
2013-03-06 19:14:00,61.3,11.7,30.18,East,90,0.0,2.0,14,0.00,CLR,,0.00,WeatherDisplay:10.37,2013-03-07 01:14:00,
2013-03-06 19:19:00,61.3,11.7,30.18,East,90,0.0,2.0,14,0.00,CLR,,0.00,WeatherDisplay:10.37,2013-03-07 01:19:00,
2013-03-06 19:24:00,61.3,11.7,30.18,East,90,0.0,2.0,14,0.00,CLR,,0.00,WeatherDisplay:10.37,2013-03-07 01:24:00,
2013-03-06 19:29:00,61.3,11.7,30.18,East,90,0.0,2.0,14,0.00,CLR,,0.00,WeatherDisplay:10.37,2013-03-07 01:29:00,
2013-03-06 19:34:00,61.3,11.7,30.18,East,90,0.0,2.0,14,0.00,CLR,,0.00,WeatherDisplay:10.37,2013-03-07 01:34:00,
2013-03-06 19:39:00,61.3,11.7,30.18,East,90,0.0,2.0,14,0.00,CLR,,0.00,WeatherDisplay:10.37,2013-03-07 01:39:00,
2013-03-06 19:44:00,61.3,11.7,30.18,East,90,0.0,2.0,14,0.00,CLR,,0.00,WeatherDisplay:10.37,2013-03-07 01:44:00,
2013-03-06 19:49:00,61.3,11.7,30.18,East,90,0.0,2.0,14,0.00,CLR,,0.00,WeatherDisplay:10.37,2013-03-07 01:49:00,
2013-03-06 19:54:00,61.3,11.7,30.18,East,90,0.0,2.0,14,0.00,CLR,,0.00,WeatherDisplay:10.37,2013-03-07 01:54:00,
2013-03-06 19:59:00,61.3,11.7,30.18,East,90,0.0,2.0,14,0.00,CLR,,0.00,WeatherDisplay:10.37,2013-03-07 01:59:00,
2013-03-06 20:04:00,61.3,11.7,30.18,East,90,0.0,2.0,14,0.00,CLR,,0.00,WeatherDisplay:10.37,2013-03-07 02:04:00,
2013-03-06 20:09:00,61.3,11.7,30.18,East,90,0.0,2.0,14,0.00,CLR,,0.00,WeatherDisplay:10.37,2013-03-07 02:09:00,
2013-03-06 20:14:00,61.3,11.7,30.18,East,90,0.0,2.0,14,0.00,CLR,,0.00,WeatherDisplay:10.37,2013-03-07 02:14:00,
2013-03-06 20:19:00,61.3,11.7,30.18,East,90,0.0,2.0,14,0.00,CLR,,0.00,WeatherDisplay:10.37,2013-03-07 02:19:00,
2013-03-06 20:24:00,61.3,11.7,30.18,East,90,0.0,2.0,14,0.00,CLR,,0.00,WeatherDisplay:10.37,2013-03-07 02:24:00,
2013-03-06 20:29:00,61.3,11.7,30.18,East,90,0.0,2.0,14,0.00,CLR,,0.00,WeatherDisplay:10.37,2013-03-07 02:29:00,
2013-03-06 20:34:00,61.3,11.7,30.18,East,90,0.0,2.0,14,0.00,CLR,,0.00,WeatherDisplay:10.37,2013-03-07 02:34:00,
2013-03-06 20:39:00,61.3,11.7,30.18,East,90,0.0,2.0,14,0.00,CLR,,0.00,WeatherDisplay:10.37,2013-03-07 02:39:00,
2013-03-06 20:44:00,61.3,11.7,30.18,East,90,0.0,2.0,14,0.00,CLR,,0.00,WeatherDisplay:10.37,2013-03-07 02:44:00,
2013-03-06 20:49:00,61.3,11.7,30.18,East,90,0.0,2.0,14,0.00,CLR,,0.00,WeatherDisplay:10.37,2013-03-07 02:49:00,
2013-03-06 20:54:00,61.3,11.7,30.18,East,90,0.0,2.0,14,0.00,CLR,,0.00,WeatherDisplay:10.37,2013-03-07 02:54:00,
2013-03-06 20:59:00,61.3,11.7,30.18,East,90,0.0,2.0,14,0.00,CLR,,0.00,WeatherDisplay:10.37,2013-03-07 02:59:00,
2013-03-06 21:04:00,61.3,11.7,30.18,East,90,0.0,2.0,14,0.00,CLR,,0.00,WeatherDisplay:10.37,2013-03-07 03:04:00,
2013-03-06 21:09:00,61.3,11.7,30.18,East,90,0.0,2.0,14,0.00,CLR,,0.00,WeatherDisplay:10.37,2013-03-07 03:09:00,
2013-03-06 21:14:00,61.3,11.7,30.18,East,90,0.0,2.0,14,0.00,CLR,,0.00,WeatherDisplay:10.37,2013-03-07 03:14:00,
2013-03-06 21:19:00,61.3,11.7,30.18,East,90,0.0,2.0,14,0.00,CLR,,0.00,WeatherDisplay:10.37,2013-03-07 03:19:00,
2013-03-06 21:24:00,61.3,11.7,30.18,East,90,0.0,2.0,14,0.00,CLR,,0.00,WeatherDisplay:10.37,2013-03-07 03:24:00,
2013-03-06 21:29:00,61.3,11.7,30.18,East,90,0.0,2.0,14,0.00,CLR,,0.00,WeatherDisplay:10.37,2013-03-07 03:29:00,
2013-03-06 21:34:00,61.3,11.7,30.18,East,90,0.0,2.0,14,0.00,CLR,,0.00,WeatherDisplay:10.37,2013-03-07 03:34:00,
2013-03-06 21:39:00,61.3,11.7,30.18,East,90,0.0,2.0,14,0.00,CLR,,0.00,WeatherDisplay:10.37,2013-03-07 03:39:00,
2013-03-06 21:44:00,61.3,11.7,30.18,East,90,0.0,2.0,14,0.00,CLR,,0.00,WeatherDisplay:10.37,2013-03-07 03:44:00,
2013-03-06 21:49:00,61.3,11.7,30.18,East,90,0.0,2.0,14,0.00,CLR,,0.00,WeatherDisplay:10.37,2013-03-07 03:49:00,
2013-03-06 21:54:00,61.3,11.7,30.18,East,90,0.0,2.0,14,0.00,CLR,,0.00,WeatherDisplay:10.37,2013-03-07 03:54:00,
2013-03-06 21:59:00,61.3,11.7,30.18,East,90,0.0,2.0,14,0.00,CLR,,0.00,WeatherDisplay:10.37,2013-03-07 03:59:00,
2013-03-06 22:04:00,61.3,11.7,30.18,East,90,0.0,2.0,14,0.00,CLR,,0.00,WeatherDisplay:10.37,2013-03-07 04:04:00,
2013-03-06 22:09:00,61.3,11.7,30.18,East,90,0.0,2.0,14,0.00,CLR,,0.00,WeatherDisplay:10.37,2013-03-07 04:09:00,
2013-03-06 22:14:00,61.3,11.7,30.18,East,90,0.0,2.0,14,0.00,CLR,,0.00,WeatherDisplay:10.37,2013-03-07 04:14:00,
2013-03-06 22:19:00,61.3,11.7,30.18,East,90,0.0,2.0,14,0.00,CLR,,0.00,WeatherDisplay:10.37,2013-03-07 04:19:00,
2013-03-06 22:24:00,61.3,11.7,30.18,East,90,0.0,2.0,14,0.00,CLR,,0.00,WeatherDisplay:10.37,2013-03-07 04:24:00,
2013-03-06 22:29:00,61.3,11.7,30.18,East,90,0.0,2.0,14,0.00,CLR,,0.00,WeatherDisplay:10.37,2013-03-07 04:29:00,
2013-03-06 22:34:00,61.3,11.7,30.18,East,90,0.0,2.0,14,0.00,CLR,,0.00,WeatherDisplay:10.37,2013-03-07 04:34:00,
2013-03-06 22:39:00,61.3,11.7,30.18,East,90,0.0,2.0,14,0.00,CLR,,0.00,WeatherDisplay:10.37,2013-03-07 04:39:00,
2013-03-06 22:44:00,61.3,11.7,30.18,East,90,0.0,2.0,14,0.00,CLR,,0.00,WeatherDisplay:10.37,2013-03-07 04:44:00,
2013-03-06 22:49:00,61.3,11.7,30.18,East,90,0.0,2.0,14,0.00,CLR,,0.00,WeatherDisplay:10.37,2013-03-07 04:49:00,
2013-03-06 22:54:00,61.3,11.7,30.18,East,90,0.0,2.0,14,0.00,CLR,,0.00,WeatherDisplay:10.37,2013-03-07 04:54:00,
2013-03-06 22:59:00,61.3,11.7,30.18,East,90,0.0,2.0,14,0.00,CLR,,0.00,WeatherDisplay:10.37,2013-03-07 04:59:00,
2013-03-06 23:00:00,61.3,11.7,30.18,East,90,0.0,2.0,14,0.00,CLR,,0.00,WeatherDisplay:10.37,2013-03-07 05:00:00,
2013-03-06 23:05:00,61.3,11.7,30.18,East,90,0.0,2.0,14,0.00,CLR,,0.00,WeatherDisplay:10.37,2013-03-07 05:05:00,
2013-03-06 23:10:00,61.3,11.7,30.18,East,90,0.0,2.0,14,0.00,CLR,,0.00,WeatherDisplay:10.37,2013-03-07 05:10:00,
2013-03-06 23:15:00,61.3,11.7,30.18,East,90,0.0,2.0,14,0.00,CLR,,0.00,WeatherDisplay:10.37,2013-03-07 05:15:00,
2013-03-06 23:20:00,61.3,11.7,30.18,East,90,0.0,2.0,14,0.00,CLR,,0.00,WeatherDisplay:10.37,2013-03-07 05:20:00,
2013-03-06 23:25:00,61.3,11.7,30.18,East,90,0.0,2.0,14,0.00,CLR,,0.00,WeatherDisplay:10.37,2013-03-07 05:25:00,
2013-03-06 23:30:00,61.3,11.7,30.18,East,90,0.0,2.0,14,0.00,CLR,,0.00,WeatherDisplay:10.37,2013-03-07 05:30:00,
2013-03-06 23:35:00,61.3,11.7,30.18,East,90,0.0,2.0,14,0.00,CLR,,0.00,WeatherDisplay:10.37,2013-03-07 05:35:00,
2013-03-06 23:40:00,61.3,11.7,30.18,East,90,0.0,2.0,14,0.00,CLR,,0.00,WeatherDisplay:10.37,2013-03-07 05:40:00,
2013-03-06 23:45:00,61.3,11.7,30.18,East,90,0.0,2.0,14,0.00,CLR,,0.00,WeatherDisplay:10.37,2013-03-07 05:45:00,
2013-03-06 23:50:00,61.3,11.7,30.18,East,90,0.0,2.0,14,0.00,CLR,,0.00,WeatherDisplay:10.37,2013-03-07 05:50:00,
2013-03-06 23:55:00,61.3,11.7,30.18,East,90,0.0,2.0,14,0.00,CLR,,0.00,WeatherDisplay:10.37,2013-03-07 05:55:00,